Time,TemperatureF,DewpointF,PressureIn,WindDirection,WindDirectionDegrees,WindSpeedMPH,WindSpeedGustMPH,Humidity,HourlyPrecipIn,Conditions,Clouds,dailyrainin,SoftwareType,DateUTC
2013-02-04 00:02:00,22.5,-3.0,29.72,SSW,204,0.0,0.0,32,0.00,CLR,,0.00,WeatherDisplay:10.37,2013-02-04 05:02:00,
2013-02-04 00:03:00,22.5,-3.0,29.72,SSW,204,0.0,0.0,32,0.00,CLR,,0.00,WeatherDisplay:10.37,2013-02-04 05:03:00,
2013-02-04 00:08:00,22.5,-3.0,29.72,SSW,204,0.0,0.0,32,0.00,CLR,,0.00,WeatherDisplay:10.37,2013-02-04 05:08:00,
2013-02-04 00:13:00,22.3,-3.2,29.72,SSW,204,0.0,0.0,32,0.00,CLR,,0.00,WeatherDisplay:10.37,2013-02-04 05:13:00,
2013-02-04 00:18:00,22.3,-3.2,29.72,SSW,204,0.0,0.0,32,0.00,CLR,,0.00,WeatherDisplay:10.37,2013-02-04 05:18:00,
2013-02-04 00:23:00,22.3,-3.2,29.72,SSW,204,0.0,0.0,32,0.00,CLR,,0.00,WeatherDisplay:10.37,2013-02-04 05:23:00,
2013-02-04 00:28:00,22.3,-3.2,29.72,SSW,204,0.0,0.0,32,0.00,CLR,,0.00,WeatherDisplay:10.37,2013-02-04 05:28:00,
2013-02-04 00:33:00,22.1,-3.3,29.72,SSW,204,0.0,0.0,32,0.00,CLR,,0.00,WeatherDisplay:10.37,2013-02-04 05:33:00,
2013-02-04 00:38:00,21.9,-3.5,29.72,SSW,204,0.0,0.0,32,0.00,CLR,,0.00,WeatherDisplay:10.37,2013-02-04 05:38:00,
2013-02-04 00:43:00,21.9,-3.5,29.72,SSW,204,0.0,0.0,32,0.00,CLR,,0.00,WeatherDisplay:10.37,2013-02-04 05:43:00,
2013-02-04 00:48:00,21.9,-3.5,29.72,SSW,204,0.0,0.0,32,0.00,CLR,,0.00,WeatherDisplay:10.37,2013-02-04 05:48:00,
2013-02-04 00:53:00,21.7,-3.6,29.72,SSW,204,0.0,0.0,32,0.00,CLR,,0.00,WeatherDisplay:10.37,2013-02-04 05:53:00,
2013-02-04 00:58:00,21.6,-3.8,29.69,SSW,204,0.0,0.0,32,0.00,CLR,,0.00,WeatherDisplay:10.37,2013-02-04 05:58:00,
2013-02-04 01:03:00,21.6,-1.9,29.69,SSW,204,0.0,0.0,35,0.00,CLR,,0.00,WeatherDisplay:10.37,2013-02-04 06:03:00,
2013-02-04 01:08:00,21.6,-1.9,29.72,SSW,204,0.0,0.0,35,0.00,CLR,,0.00,WeatherDisplay:10.37,2013-02-04 06:08:00,
2013-02-04 01:13:00,21.0,-2.4,29.72,SSW,204,0.0,0.0,35,0.00,CLR,,0.00,WeatherDisplay:10.37,2013-02-04 06:13:00,
2013-02-04 01:18:00,20.7,-2.7,29.72,SSW,204,0.0,0.0,35,0.00,CLR,,0.00,WeatherDisplay:10.37,2013-02-04 06:18:00,
2013-02-04 01:23:00,20.3,-3.0,29.72,SSW,204,0.0,0.0,35,0.00,CLR,,0.00,WeatherDisplay:10.37,2013-02-04 06:23:00,
2013-02-04 01:28:00,20.3,-3.0,29.69,SSW,204,0.0,0.0,35,0.00,CLR,,0.00,WeatherDisplay:10.37,2013-02-04 06:28:00,
2013-02-04 01:33:00,19.8,-3.5,29.69,SSW,204,0.0,0.0,35,0.00,CLR,,0.00,WeatherDisplay:10.37,2013-02-04 06:33:00,
2013-02-04 01:38:00,19.8,-3.5,29.72,SSW,204,0.0,0.0,35,0.00,CLR,,0.00,WeatherDisplay:10.37,2013-02-04 06:38:00,
2013-02-04 01:43:00,19.6,-3.7,29.72,SSW,204,0.0,0.0,35,0.00,CLR,,0.00,WeatherDisplay:10.37,2013-02-04 06:43:00,
2013-02-04 01:48:00,19.6,-2.5,29.72,SSW,204,0.0,0.0,37,0.00,CLR,,0.00,WeatherDisplay:10.37,2013-02-04 06:48:00,
2013-02-04 01:53:00,19.2,-2.3,29.72,SSW,204,0.0,0.0,38,0.00,CLR,,0.00,WeatherDisplay:10.37,2013-02-04 06:53:00,
2013-02-04 01:58:00,19.2,-1.2,29.72,SSW,204,0.0,0.0,40,0.00,CLR,,0.00,WeatherDisplay:10.37,2013-02-04 06:58:00,
2013-02-04 02:03:00,19.0,0.2,29.72,SSW,204,0.0,0.0,43,0.00,CLR,,0.00,WeatherDisplay:10.37,2013-02-04 07:03:00,
2013-02-04 02:08:00,19.4,1.0,29.72,SSW,204,0.0,0.0,44,0.00,CLR,,0.00,WeatherDisplay:10.37,2013-02-04 07:08:00,
2013-02-04 02:13:00,19.4,1.0,29.72,SSW,204,0.0,0.0,44,0.00,CLR,,0.00,WeatherDisplay:10.37,2013-02-04 07:13:00,
2013-02-04 02:18:00,19.4,1.0,29.72,SSW,204,0.0,0.0,44,0.00,CLR,,0.00,WeatherDisplay:10.37,2013-02-04 07:18:00,
2013-02-04 02:23:00,19.6,1.2,29.72,SSW,204,2.3,0.0,44,0.00,CLR,,0.00,WeatherDisplay:10.37,2013-02-04 07:23:00,
2013-02-04 02:28:00,19.6,1.2,29.72,SSW,204,0.0,0.0,44,0.00,CLR,,0.00,WeatherDisplay:10.37,2013-02-04 07:28:00,
2013-02-04 02:33:00,19.6,1.2,29.72,SSW,204,0.0,0.0,44,0.00,CLR,,0.00,WeatherDisplay:10.37,2013-02-04 07:33:00,
2013-02-04 02:38:00,19.8,1.3,29.72,West,273,3.5,3.5,44,0.00,CLR,,0.00,WeatherDisplay:10.37,2013-02-04 07:38:00,
2013-02-04 02:43:00,19.8,1.3,29.72,WNW,288,3.5,0.0,44,0.00,CLR,,0.00,WeatherDisplay:10.37,2013-02-04 07:43:00,
2013-02-04 02:48:00,19.8,1.3,29.72,WNW,291,0.0,0.0,44,0.00,CLR,,0.00,WeatherDisplay:10.37,2013-02-04 07:48:00,
2013-02-04 02:53:00,19.6,0.7,29.72,WNW,291,0.0,0.0,43,0.00,CLR,,0.00,WeatherDisplay:10.37,2013-02-04 07:53:00,
2013-02-04 02:58:00,19.6,0.7,29.69,WNW,291,0.0,0.0,43,0.00,CLR,,0.00,WeatherDisplay:10.37,2013-02-04 07:58:00,
2013-02-04 03:03:00,19.8,1.3,29.69,WNW,291,0.0,0.0,44,0.00,CLR,,0.00,WeatherDisplay:10.37,2013-02-04 08:03:00,
2013-02-04 03:08:00,19.8,1.3,29.69,WNW,291,0.0,0.0,44,0.00,CLR,,0.00,WeatherDisplay:10.37,2013-02-04 08:08:00,
2013-02-04 03:13:00,19.4,0.5,29.69,WNW,291,0.0,0.0,43,0.00,CLR,,0.00,WeatherDisplay:10.37,2013-02-04 08:13:00,
2013-02-04 03:18:00,19.0,0.2,29.69,WNW,291,0.0,0.0,43,0.00,CLR,,0.00,WeatherDisplay:10.37,2013-02-04 08:18:00,
2013-02-04 03:23:00,18.7,-0.1,29.69,WNW,291,0.0,0.0,43,0.00,CLR,,0.00,WeatherDisplay:10.37,2013-02-04 08:23:00,
2013-02-04 03:28:00,18.1,-0.6,29.69,WNW,291,0.0,0.0,43,0.00,CLR,,0.00,WeatherDisplay:10.37,2013-02-04 08:28:00,
2013-02-04 03:33:00,18.1,-0.6,29.69,WNW,291,0.0,0.0,43,0.00,CLR,,0.00,WeatherDisplay:10.37,2013-02-04 08:33:00,
2013-02-04 03:38:00,18.1,-0.6,29.69,WNW,291,0.0,0.0,43,0.00,CLR,,0.00,WeatherDisplay:10.37,2013-02-04 08:38:00,
2013-02-04 03:43:00,18.5,-1.8,29.69,WNW,291,0.0,0.0,40,0.00,CLR,,0.00,WeatherDisplay:10.37,2013-02-04 08:43:00,
2013-02-04 03:48:00,18.3,-2.0,29.69,WNW,291,0.0,0.0,40,0.00,CLR,,0.00,WeatherDisplay:10.37,2013-02-04 08:48:00,
2013-02-04 03:53:00,18.1,-3.3,29.69,WNW,291,0.0,0.0,38,0.00,CLR,,0.00,WeatherDisplay:10.37,2013-02-04 08:53:00,
2013-02-04 03:58:00,18.1,-3.3,29.69,WNW,291,0.0,0.0,38,0.00,CLR,,0.00,WeatherDisplay:10.37,2013-02-04 08:58:00,
2013-02-04 04:03:00,17.6,-3.7,29.69,WNW,291,0.0,0.0,38,0.00,CLR,,0.00,WeatherDisplay:10.37,2013-02-04 09:03:00,
2013-02-04 04:08:00,17.6,-3.7,29.69,WNW,291,0.0,0.0,38,0.00,CLR,,0.00,WeatherDisplay:10.37,2013-02-04 09:08:00,
2013-02-04 04:13:00,17.6,-3.7,29.69,WNW,291,0.0,0.0,38,0.00,CLR,,0.00,WeatherDisplay:10.37,2013-02-04 09:13:00,
2013-02-04 04:18:00,16.7,-3.0,29.69,WNW,291,0.0,0.0,41,0.00,CLR,,0.00,WeatherDisplay:10.37,2013-02-04 09:18:00,
2013-02-04 04:23:00,16.7,-3.0,29.69,WNW,291,0.0,0.0,41,0.00,CLR,,0.00,WeatherDisplay:10.37,2013-02-04 09:23:00,
2013-02-04 04:28:00,16.5,-4.7,29.72,WNW,291,0.0,0.0,38,0.00,CLR,,0.00,WeatherDisplay:10.37,2013-02-04 09:28:00,
2013-02-04 04:33:00,16.5,-4.7,29.72,WNW,291,0.0,0.0,38,0.00,CLR,,0.00,WeatherDisplay:10.37,2013-02-04 09:33:00,
2013-02-04 04:38:00,16.5,-4.7,29.72,WNW,291,0.0,0.0,38,0.00,CLR,,0.00,WeatherDisplay:10.37,2013-02-04 09:38:00,
2013-02-04 04:43:00,16.7,-3.0,29.72,WNW,291,0.0,0.0,41,0.00,CLR,,0.00,WeatherDisplay:10.37,2013-02-04 09:43:00,
2013-02-04 04:48:00,16.7,-3.0,29.72,WNW,291,0.0,0.0,41,0.00,CLR,,0.00,WeatherDisplay:10.37,2013-02-04 09:48:00,
2013-02-04 04:53:00,17.2,-2.5,29.72,WNW,291,0.0,0.0,41,0.00,CLR,,0.00,WeatherDisplay:10.37,2013-02-04 09:53:00,
2013-02-04 04:58:00,17.2,-2.5,29.72,WNW,291,3.5,0.0,41,0.00,CLR,,0.00,WeatherDisplay:10.37,2013-02-04 09:58:00,
2013-02-04 05:03:00,17.6,-2.1,29.72,WNW,291,2.3,0.0,41,0.00,CLR,,0.00,WeatherDisplay:10.37,2013-02-04 10:03:00,
2013-02-04 05:08:00,17.8,-3.6,29.72,WNW,291,0.0,0.0,38,0.00,CLR,,0.00,WeatherDisplay:10.37,2013-02-04 10:08:00,
2013-02-04 05:13:00,18.1,-3.3,29.72,WNW,291,0.0,0.0,38,0.00,CLR,,0.00,WeatherDisplay:10.37,2013-02-04 10:13:00,
2013-02-04 05:18:00,18.3,-3.1,29.72,WNW,291,0.0,0.0,38,0.00,CLR,,0.00,WeatherDisplay:10.37,2013-02-04 10:18:00,
2013-02-04 05:23:00,18.1,-5.0,29.72,WNW,291,0.0,0.0,35,0.00,CLR,,0.00,WeatherDisplay:10.37,2013-02-04 10:23:00,
2013-02-04 05:28:00,18.1,-5.0,29.72,WNW,291,0.0,0.0,35,0.00,CLR,,0.00,WeatherDisplay:10.37,2013-02-04 10:28:00,
2013-02-04 05:33:00,18.1,-5.0,29.72,WNW,291,0.0,0.0,35,0.00,CLR,,0.00,WeatherDisplay:10.37,2013-02-04 10:33:00,
2013-02-04 05:38:00,18.0,-6.4,29.72,WNW,291,0.0,0.0,33,0.00,CLR,,0.00,WeatherDisplay:10.37,2013-02-04 10:38:00,
2013-02-04 05:43:00,17.1,-7.2,29.72,WNW,291,0.0,0.0,33,0.00,CLR,,0.00,WeatherDisplay:10.37,2013-02-04 10:43:00,
2013-02-04 05:48:00,16.7,-7.5,29.72,WNW,291,0.0,0.0,33,0.00,CLR,,0.00,WeatherDisplay:10.37,2013-02-04 10:48:00,
2013-02-04 05:53:00,16.7,-7.5,29.72,WNW,291,0.0,0.0,33,0.00,CLR,,0.00,WeatherDisplay:10.37,2013-02-04 10:53:00,
2013-02-04 05:58:00,16.5,-7.6,29.72,WNW,291,0.0,0.0,33,0.00,CLR,,0.00,WeatherDisplay:10.37,2013-02-04 10:58:00,
2013-02-04 06:03:00,15.8,-6.5,29.72,WNW,291,0.0,0.0,36,0.00,CLR,,0.00,WeatherDisplay:10.37,2013-02-04 11:03:00,
2013-02-04 06:08:00,15.6,-7.8,29.72,WNW,291,0.0,0.0,34,0.00,CLR,,0.00,WeatherDisplay:10.37,2013-02-04 11:08:00,
2013-02-04 06:13:00,15.3,-7.0,29.72,WNW,291,0.0,0.0,36,0.00,CLR,,0.00,WeatherDisplay:10.37,2013-02-04 11:13:00,
2013-02-04 06:18:00,15.3,-7.0,29.72,WNW,291,0.0,0.0,36,0.00,CLR,,0.00,WeatherDisplay:10.37,2013-02-04 11:18:00,
2013-02-04 06:23:00,15.3,-7.0,29.72,WNW,291,0.0,0.0,36,0.00,CLR,,0.00,WeatherDisplay:10.37,2013-02-04 11:23:00,
2013-02-04 06:28:00,15.4,-6.8,29.72,WNW,291,0.0,0.0,36,0.00,CLR,,0.00,WeatherDisplay:10.37,2013-02-04 11:28:00,
2013-02-04 06:33:00,15.4,-6.8,29.72,WNW,291,0.0,0.0,36,0.00,CLR,,0.00,WeatherDisplay:10.37,2013-02-04 11:33:00,
2013-02-04 06:38:00,15.4,-6.8,29.72,WNW,291,0.0,0.0,36,0.00,CLR,,0.00,WeatherDisplay:10.37,2013-02-04 11:38:00,
2013-02-04 06:43:00,16.0,-6.3,29.72,WNW,291,0.0,0.0,36,0.00,CLR,,0.00,WeatherDisplay:10.37,2013-02-04 11:43:00,
2013-02-04 06:48:00,15.4,-6.8,29.72,WNW,291,0.0,0.0,36,0.00,CLR,,0.00,WeatherDisplay:10.37,2013-02-04 11:48:00,
2013-02-04 06:54:00,15.1,-7.1,29.72,WNW,291,0.0,0.0,36,0.00,CLR,,0.00,WeatherDisplay:10.37,2013-02-04 11:54:00,
2013-02-04 06:59:00,15.1,-7.1,29.75,WNW,291,0.0,0.0,36,0.00,CLR,,0.00,WeatherDisplay:10.37,2013-02-04 11:59:00,
2013-02-04 07:04:00,15.1,-7.1,29.75,WNW,291,0.0,0.0,36,0.00,CLR,,0.00,WeatherDisplay:10.37,2013-02-04 12:04:00,
2013-02-04 07:09:00,15.1,-7.1,29.75,WNW,291,0.0,0.0,36,0.00,CLR,,0.00,WeatherDisplay:10.37,2013-02-04 12:09:00,
2013-02-04 07:14:00,15.1,-7.1,29.75,WNW,291,0.0,0.0,36,0.00,CLR,,0.00,WeatherDisplay:10.37,2013-02-04 12:14:00,
2013-02-04 07:19:00,15.4,-6.8,29.75,WNW,282,0.0,0.0,36,0.00,CLR,,0.00,WeatherDisplay:10.37,2013-02-04 12:19:00,
2013-02-04 07:24:00,16.0,-6.3,29.75,WNW,282,0.0,0.0,36,0.00,CLR,,0.00,WeatherDisplay:10.37,2013-02-04 12:24:00,
2013-02-04 07:29:00,16.2,-5.0,29.75,WNW,282,0.0,0.0,38,0.00,CLR,,0.00,WeatherDisplay:10.37,2013-02-04 12:29:00,
2013-02-04 07:34:00,16.5,-7.6,29.75,WNW,282,0.0,0.0,33,0.00,CLR,,0.00,WeatherDisplay:10.37,2013-02-04 12:34:00,
2013-02-04 07:39:00,16.5,-7.6,29.75,WNW,282,0.0,0.0,33,0.00,CLR,,0.00,WeatherDisplay:10.37,2013-02-04 12:39:00,
2013-02-04 07:44:00,16.5,-7.6,29.75,WNW,282,0.0,0.0,33,0.00,CLR,,0.00,WeatherDisplay:10.37,2013-02-04 12:44:00,
2013-02-04 07:49:00,16.5,-7.6,29.75,North,357,3.5,0.0,33,0.00,CLR,,0.00,WeatherDisplay:10.37,2013-02-04 12:49:00,
2013-02-04 07:54:00,16.5,-7.6,29.75,NNW,334,0.0,0.0,33,0.00,CLR,,0.00,WeatherDisplay:10.37,2013-02-04 12:54:00,
2013-02-04 07:59:00,18.7,-5.7,29.75,NW,318,0.0,0.0,33,0.00,CLR,,0.00,WeatherDisplay:10.37,2013-02-04 12:59:00,
2013-02-04 08:04:00,21.2,-4.1,29.75,WNW,300,2.3,2.3,32,0.00,CLR,,0.00,WeatherDisplay:10.37,2013-02-04 13:04:00,
2013-02-04 08:09:00,21.7,-3.6,29.75,West,270,3.5,3.5,32,0.00,CLR,,0.00,WeatherDisplay:10.37,2013-02-04 13:09:00,
2013-02-04 08:14:00,21.7,-3.6,29.75,WNW,285,2.3,2.7,32,0.00,CLR,,0.00,WeatherDisplay:10.37,2013-02-04 13:14:00,
2013-02-04 08:19:00,21.6,-3.8,29.75,SW,226,3.5,0.0,32,0.00,CLR,,0.00,WeatherDisplay:10.37,2013-02-04 13:19:00,
2013-02-04 08:24:00,21.6,-3.8,29.75,WNW,302,5.8,5.8,32,0.00,CLR,,0.00,WeatherDisplay:10.37,2013-02-04 13:24:00,
2013-02-04 08:29:00,23.5,-2.1,29.75,NW,325,3.5,3.6,32,0.00,CLR,,0.00,WeatherDisplay:10.37,2013-02-04 13:29:00,
2013-02-04 08:34:00,25.3,-1.1,29.75,WNW,286,2.3,2.7,31,0.00,CLR,,0.00,WeatherDisplay:10.37,2013-02-04 13:34:00,
2013-02-04 08:39:00,26.1,-0.5,29.75,SW,224,3.5,3.5,31,0.00,CLR,,0.00,WeatherDisplay:10.37,2013-02-04 13:39:00,
2013-02-04 08:44:00,27.1,0.4,29.75,NW,305,3.5,3.5,31,0.00,CLR,,0.00,WeatherDisplay:10.37,2013-02-04 13:44:00,
2013-02-04 08:49:00,27.9,1.1,29.75,WNW,292,3.5,8.0,31,0.00,CLR,,0.00,WeatherDisplay:10.37,2013-02-04 13:49:00,
2013-02-04 08:54:00,27.9,1.1,29.75,NNW,329,8.1,8.1,31,0.00,CLR,,0.00,WeatherDisplay:10.37,2013-02-04 13:54:00,
2013-02-04 08:59:00,25.9,-0.7,29.75,WNW,282,3.5,4.0,31,0.00,CLR,,0.00,WeatherDisplay:10.37,2013-02-04 13:59:00,
2013-02-04 09:04:00,25.2,-1.3,29.75,NNW,327,9.2,9.2,31,0.00,CLR,,0.00,WeatherDisplay:10.37,2013-02-04 14:04:00,
2013-02-04 09:09:00,25.3,-1.1,29.75,North,350,4.6,4.6,31,0.00,CLR,,0.00,WeatherDisplay:10.37,2013-02-04 14:09:00,
2013-02-04 09:14:00,25.9,-0.7,29.75,West,264,9.2,9.2,31,0.00,CLR,,0.00,WeatherDisplay:10.37,2013-02-04 14:14:00,
2013-02-04 09:19:00,25.9,-0.7,29.75,WNW,297,8.1,8.1,31,0.00,CLR,,0.00,WeatherDisplay:10.37,2013-02-04 14:19:00,
2013-02-04 09:24:00,24.3,-1.4,29.75,WSW,239,8.1,8.1,32,0.00,CLR,,0.00,WeatherDisplay:10.37,2013-02-04 14:24:00,
2013-02-04 09:29:00,24.3,-1.4,29.75,WNW,287,5.8,6.7,32,0.00,CLR,,0.00,WeatherDisplay:10.37,2013-02-04 14:29:00,
2013-02-04 09:34:00,24.3,-1.4,29.75,SW,234,8.1,8.1,32,0.00,CLR,,0.00,WeatherDisplay:10.37,2013-02-04 14:34:00,
2013-02-04 09:39:00,25.2,-1.3,29.75,West,259,8.1,8.1,31,0.00,CLR,,0.00,WeatherDisplay:10.37,2013-02-04 14:39:00,
2013-02-04 09:44:00,25.0,-1.5,29.75,WNW,290,8.1,8.1,31,0.00,CLR,,0.00,WeatherDisplay:10.37,2013-02-04 14:44:00,
2013-02-04 09:49:00,24.8,-0.9,29.75,WSW,257,10.4,10.4,32,0.00,CLR,,0.00,WeatherDisplay:10.37,2013-02-04 14:49:00,
2013-02-04 09:54:00,24.8,-0.9,29.75,WNW,284,9.2,9.2,32,0.00,CLR,,0.00,WeatherDisplay:10.37,2013-02-04 14:54:00,
2013-02-04 09:59:00,25.0,-1.5,29.75,West,272,5.8,5.8,31,0.00,CLR,,0.00,WeatherDisplay:10.37,2013-02-04 14:59:00,
2013-02-04 10:04:00,25.3,-1.1,29.75,NW,323,8.1,8.1,31,0.00,CLR,,0.00,WeatherDisplay:10.37,2013-02-04 15:04:00,
2013-02-04 10:09:00,25.7,-0.8,29.75,West,266,5.8,5.8,31,0.00,CLR,,0.00,WeatherDisplay:10.37,2013-02-04 15:09:00,
2013-02-04 10:14:00,25.7,-0.8,29.75,North,357,5.8,5.8,31,0.00,CLR,,0.00,WeatherDisplay:10.37,2013-02-04 15:14:00,
2013-02-04 10:19:00,25.9,1.3,29.75,North,353,3.5,3.6,34,0.00,CLR,,0.00,WeatherDisplay:10.37,2013-02-04 15:19:00,
2013-02-04 10:24:00,26.1,-0.5,29.75,NW,309,8.1,8.1,31,0.00,CLR,,0.00,WeatherDisplay:10.37,2013-02-04 15:24:00,
2013-02-04 10:29:00,26.1,-0.5,29.75,North,357,4.6,4.6,31,0.00,CLR,,0.00,WeatherDisplay:10.37,2013-02-04 15:29:00,
2013-02-04 10:34:00,26.6,0.0,29.75,WNW,287,3.5,4.9,31,0.00,CLR,,0.00,WeatherDisplay:10.37,2013-02-04 15:34:00,
2013-02-04 10:39:00,26.6,0.0,29.75,WNW,291,4.6,4.6,31,0.00,CLR,,0.00,WeatherDisplay:10.37,2013-02-04 15:39:00,
2013-02-04 10:44:00,27.0,0.3,29.75,West,279,10.4,10.4,31,0.00,CLR,,0.00,WeatherDisplay:10.37,2013-02-04 15:44:00,
2013-02-04 10:49:00,26.4,-0.2,29.75,WSW,252,5.8,6.7,31,0.00,CLR,,0.00,WeatherDisplay:10.37,2013-02-04 15:49:00,
2013-02-04 10:54:00,26.6,0.0,29.75,West,262,11.5,11.5,31,0.00,CLR,,0.00,WeatherDisplay:10.37,2013-02-04 15:54:00,
2013-02-04 10:59:00,26.1,-0.5,29.75,NW,305,8.1,8.1,31,0.00,CLR,,0.00,WeatherDisplay:10.37,2013-02-04 15:59:00,
2013-02-04 11:04:00,26.2,-0.3,29.75,NW,312,5.8,6.7,31,0.00,CLR,,0.00,WeatherDisplay:10.37,2013-02-04 16:04:00,
2013-02-04 11:09:00,26.4,-0.2,29.75,NNE,19,5.8,6.3,31,0.00,CLR,,0.00,WeatherDisplay:10.37,2013-02-04 16:09:00,
2013-02-04 11:14:00,26.4,-0.2,29.75,West,277,5.8,5.8,31,0.00,CLR,,0.00,WeatherDisplay:10.37,2013-02-04 16:14:00,
2013-02-04 11:19:00,26.4,-0.2,29.75,NW,319,8.1,8.1,31,0.00,CLR,,0.00,WeatherDisplay:10.37,2013-02-04 16:19:00,
2013-02-04 11:24:00,26.4,-0.2,29.75,WSW,250,9.2,9.2,31,0.00,CLR,,0.00,WeatherDisplay:10.37,2013-02-04 16:24:00,
2013-02-04 11:29:00,27.3,0.6,29.75,WNW,301,8.1,8.1,31,0.00,CLR,,0.00,WeatherDisplay:10.37,2013-02-04 16:29:00,
2013-02-04 11:34:00,29.1,1.5,29.75,WSW,251,8.1,8.1,30,0.00,CLR,,0.00,WeatherDisplay:10.37,2013-02-04 16:34:00,
2013-02-04 11:39:00,27.5,0.8,29.75,NE,50,10.4,10.4,31,0.00,CLR,,0.00,WeatherDisplay:10.37,2013-02-04 16:39:00,
2013-02-04 11:44:00,27.9,1.1,29.75,WNW,285,5.8,7.2,31,0.00,CLR,,0.00,WeatherDisplay:10.37,2013-02-04 16:44:00,
2013-02-04 11:49:00,28.4,1.6,29.75,West,279,3.5,4.5,31,0.00,CLR,,0.00,WeatherDisplay:10.37,2013-02-04 16:49:00,
2013-02-04 11:54:00,28.8,1.2,29.75,West,272,9.2,9.2,30,0.00,CLR,,0.00,WeatherDisplay:10.37,2013-02-04 16:54:00,
2013-02-04 11:59:00,28.2,1.4,29.75,West,264,5.8,8.0,31,0.00,CLR,,0.00,WeatherDisplay:10.37,2013-02-04 16:59:00,
2013-02-04 12:04:00,28.2,1.4,29.75,NNW,334,9.2,9.2,31,0.00,CLR,,0.00,WeatherDisplay:10.37,2013-02-04 17:04:00,
2013-02-04 12:09:00,28.8,1.2,29.72,NW,309,8.1,8.1,30,0.00,CLR,,0.00,WeatherDisplay:10.37,2013-02-04 17:09:00,
2013-02-04 12:14:00,30.2,2.4,29.72,WNW,298,3.5,5.4,30,0.00,CLR,,0.00,WeatherDisplay:10.37,2013-02-04 17:14:00,
2013-02-04 12:19:00,30.2,2.4,29.72,WNW,286,5.8,5.8,30,0.00,CLR,,0.00,WeatherDisplay:10.37,2013-02-04 17:19:00,
2013-02-04 12:24:00,30.0,2.3,29.72,NW,306,8.1,8.1,30,0.00,CLR,,0.00,WeatherDisplay:10.37,2013-02-04 17:24:00,
2013-02-04 12:29:00,29.1,1.5,29.72,WNW,290,9.2,9.2,30,0.00,CLR,,0.00,WeatherDisplay:10.37,2013-02-04 17:29:00,
2013-02-04 12:34:00,29.8,2.1,29.72,WNW,292,10.4,10.4,30,0.00,CLR,,0.00,WeatherDisplay:10.37,2013-02-04 17:34:00,
2013-02-04 12:39:00,29.8,2.1,29.72,WSW,258,8.1,8.1,30,0.00,CLR,,0.00,WeatherDisplay:10.37,2013-02-04 17:39:00,
2013-02-04 12:44:00,29.8,2.1,29.72,WSW,245,6.9,6.9,30,0.00,CLR,,0.00,WeatherDisplay:10.37,2013-02-04 17:44:00,
2013-02-04 12:49:00,29.1,1.5,29.72,NW,320,6.9,6.9,30,0.00,CLR,,0.00,WeatherDisplay:10.37,2013-02-04 17:49:00,
2013-02-04 12:54:00,29.1,1.5,29.72,SSW,213,8.1,8.1,30,0.00,CLR,,0.00,WeatherDisplay:10.37,2013-02-04 17:54:00,
2013-02-04 12:59:00,28.8,1.2,29.72,NNE,14,9.2,9.2,30,0.00,CLR,,0.00,WeatherDisplay:10.37,2013-02-04 17:59:00,
2013-02-04 13:04:00,32.0,4.0,29.72,WSW,252,8.1,8.1,30,0.00,CLR,,0.00,WeatherDisplay:10.37,2013-02-04 18:04:00,
2013-02-04 13:09:00,29.8,2.1,29.72,West,275,6.9,6.9,30,0.00,CLR,,0.00,WeatherDisplay:10.37,2013-02-04 18:09:00,
2013-02-04 13:14:00,28.8,1.2,29.72,WNW,297,5.8,7.2,30,0.00,CLR,,0.00,WeatherDisplay:10.37,2013-02-04 18:14:00,
2013-02-04 13:19:00,27.9,1.1,29.72,North,357,9.2,9.2,31,0.00,CLR,,0.00,WeatherDisplay:10.37,2013-02-04 18:19:00,
2013-02-04 13:24:00,28.8,1.2,29.72,NNW,333,8.1,8.1,30,0.00,CLR,,0.00,WeatherDisplay:10.37,2013-02-04 18:24:00,
2013-02-04 13:29:00,29.8,2.1,29.72,NW,320,5.8,5.8,30,0.00,CLR,,0.00,WeatherDisplay:10.37,2013-02-04 18:29:00,
2013-02-04 13:34:00,30.0,2.3,29.72,North,6,8.1,8.1,30,0.00,CLR,,0.00,WeatherDisplay:10.37,2013-02-04 18:34:00,
2013-02-04 13:39:00,31.8,3.9,29.72,WNW,291,9.2,9.2,30,0.00,CLR,,0.00,WeatherDisplay:10.37,2013-02-04 18:39:00,
2013-02-04 13:44:00,30.6,2.7,29.72,WSW,253,10.4,10.4,30,0.00,CLR,,0.00,WeatherDisplay:10.37,2013-02-04 18:44:00,
2013-02-04 13:49:00,29.7,2.0,29.72,SSW,209,10.4,10.4,30,0.00,CLR,,0.00,WeatherDisplay:10.37,2013-02-04 18:49:00,
2013-02-04 13:54:00,28.6,1.0,29.72,NNW,333,8.1,8.1,30,0.00,CLR,,0.00,WeatherDisplay:10.37,2013-02-04 18:54:00,
2013-02-04 13:59:00,28.9,1.3,29.72,WSW,249,8.1,8.1,30,0.00,CLR,,0.00,WeatherDisplay:10.37,2013-02-04 18:59:00,
2013-02-04 14:04:00,28.9,1.3,29.72,West,262,8.1,8.1,30,0.00,CLR,,0.00,WeatherDisplay:10.37,2013-02-04 19:04:00,
2013-02-04 14:09:00,29.1,1.5,29.72,NNW,333,11.5,11.5,30,0.00,CLR,,0.00,WeatherDisplay:10.37,2013-02-04 19:09:00,
2013-02-04 14:14:00,28.4,1.6,29.72,WNW,284,8.1,8.1,31,0.00,CLR,,0.00,WeatherDisplay:10.37,2013-02-04 19:14:00,
2013-02-04 14:19:00,28.8,1.2,29.72,North,1,7.2,7.2,30,0.00,CLR,,0.00,WeatherDisplay:10.37,2013-02-04 19:19:00,
2013-02-04 14:24:00,28.8,1.2,29.72,WNW,297,5.8,5.8,30,0.00,CLR,,0.00,WeatherDisplay:10.37,2013-02-04 19:24:00,
2013-02-04 14:29:00,28.8,1.2,29.75,WNW,284,3.5,5.4,30,0.00,CLR,,0.00,WeatherDisplay:10.37,2013-02-04 19:29:00,
2013-02-04 14:34:00,28.6,1.0,29.75,SW,232,5.8,5.8,30,0.00,CLR,,0.00,WeatherDisplay:10.37,2013-02-04 19:34:00,
2013-02-04 14:39:00,27.9,1.1,29.75,West,259,8.1,8.1,31,0.00,CLR,,0.00,WeatherDisplay:10.37,2013-02-04 19:39:00,
2013-02-04 14:44:00,28.4,1.6,29.75,WNW,294,11.5,11.5,31,0.00,CLR,,0.00,WeatherDisplay:10.37,2013-02-04 19:44:00,
2013-02-04 14:49:00,28.8,1.2,29.75,NW,320,9.2,9.2,30,0.00,CLR,,0.00,WeatherDisplay:10.37,2013-02-04 19:49:00,
2013-02-04 14:54:00,28.6,1.0,29.75,NW,304,8.1,8.1,30,0.00,CLR,,0.00,WeatherDisplay:10.37,2013-02-04 19:54:00,
2013-02-04 14:59:00,28.2,1.4,29.75,West,267,5.8,5.8,31,0.00,CLR,,0.00,WeatherDisplay:10.37,2013-02-04 19:59:00,
2013-02-04 15:04:00,28.6,1.0,29.75,WNW,287,3.5,4.0,30,0.00,CLR,,0.00,WeatherDisplay:10.37,2013-02-04 20:04:00,
2013-02-04 15:09:00,27.3,2.0,29.75,WSW,258,5.8,5.8,33,0.00,CLR,,0.00,WeatherDisplay:10.37,2013-02-04 20:09:00,
2013-02-04 15:14:00,26.6,0.0,29.75,West,267,9.2,9.2,31,0.00,CLR,,0.00,WeatherDisplay:10.37,2013-02-04 20:14:00,
2013-02-04 15:19:00,26.6,0.0,29.75,WSW,251,9.2,9.2,31,0.00,CLR,,0.00,WeatherDisplay:10.37,2013-02-04 20:19:00,
2013-02-04 15:24:00,26.4,-0.2,29.75,West,261,5.8,5.8,31,0.00,CLR,,0.00,WeatherDisplay:10.37,2013-02-04 20:24:00,
2013-02-04 15:29:00,26.2,-0.3,29.75,WNW,302,8.1,8.1,31,0.00,CLR,,0.00,WeatherDisplay:10.37,2013-02-04 20:29:00,
2013-02-04 15:34:00,26.2,-0.3,29.75,WSW,256,8.1,8.1,31,0.00,CLR,,0.00,WeatherDisplay:10.37,2013-02-04 20:34:00,
2013-02-04 15:39:00,27.7,0.9,29.75,NW,305,5.8,5.8,31,0.00,CLR,,0.00,WeatherDisplay:10.37,2013-02-04 20:39:00,
2013-02-04 15:44:00,28.2,1.4,29.75,West,276,5.4,5.4,31,0.00,CLR,,0.00,WeatherDisplay:10.37,2013-02-04 20:44:00,
2013-02-04 15:49:00,27.7,0.9,29.75,WSW,253,9.2,9.2,31,0.00,CLR,,0.00,WeatherDisplay:10.37,2013-02-04 20:49:00,
2013-02-04 15:54:00,27.7,0.9,29.75,WSW,257,6.9,7.6,31,0.00,CLR,,0.00,WeatherDisplay:10.37,2013-02-04 20:54:00,
2013-02-04 15:59:00,27.3,0.6,29.75,SW,235,12.7,12.7,31,0.00,CLR,,0.00,WeatherDisplay:10.37,2013-02-04 20:59:00,
2013-02-04 16:04:00,27.3,0.6,29.75,West,266,4.6,4.6,31,0.00,CLR,,0.00,WeatherDisplay:10.37,2013-02-04 21:04:00,
2013-02-04 16:09:00,26.8,0.1,29.75,NNW,332,5.8,8.0,31,0.00,CLR,,0.00,WeatherDisplay:10.37,2013-02-04 21:09:00,
2013-02-04 16:14:00,26.6,0.0,29.75,West,274,5.8,5.8,31,0.00,CLR,,0.00,WeatherDisplay:10.37,2013-02-04 21:14:00,
2013-02-04 16:19:00,26.4,-0.2,29.75,WNW,299,5.8,5.8,31,0.00,CLR,,0.00,WeatherDisplay:10.37,2013-02-04 21:19:00,
2013-02-04 16:24:00,26.2,-0.3,29.75,SW,220,5.8,5.8,31,0.00,CLR,,0.00,WeatherDisplay:10.37,2013-02-04 21:24:00,
2013-02-04 16:29:00,26.1,-0.5,29.75,NW,310,5.8,5.8,31,0.00,CLR,,0.00,WeatherDisplay:10.37,2013-02-04 21:29:00,
2013-02-04 16:34:00,25.7,-0.8,29.75,NW,309,5.8,5.8,31,0.00,CLR,,0.00,WeatherDisplay:10.37,2013-02-04 21:34:00,
2013-02-04 16:39:00,25.7,-0.8,29.78,West,259,8.1,8.1,31,0.00,CLR,,0.00,WeatherDisplay:10.37,2013-02-04 21:39:00,
2013-02-04 16:44:00,25.7,-0.8,29.78,NNW,337,6.9,6.9,31,0.00,CLR,,0.00,WeatherDisplay:10.37,2013-02-04 21:44:00,
2013-02-04 16:49:00,25.3,-1.1,29.78,West,271,5.8,5.8,31,0.00,CLR,,0.00,WeatherDisplay:10.37,2013-02-04 21:49:00,
2013-02-04 16:54:00,25.2,-1.3,29.78,NW,304,5.8,5.8,31,0.00,CLR,,0.00,WeatherDisplay:10.37,2013-02-04 21:54:00,
2013-02-04 16:59:00,24.8,-0.9,29.78,NW,309,4.6,4.6,32,0.00,CLR,,0.00,WeatherDisplay:10.37,2013-02-04 21:59:00,
2013-02-04 17:04:00,25.3,-1.1,29.78,West,275,6.9,6.9,31,0.00,CLR,,0.00,WeatherDisplay:10.37,2013-02-04 22:04:00,
2013-02-04 17:09:00,24.8,-0.9,29.78,WNW,284,5.8,5.8,32,0.00,CLR,,0.00,WeatherDisplay:10.37,2013-02-04 22:09:00,
2013-02-04 17:14:00,25.0,-1.5,29.78,North,353,4.6,4.6,31,0.00,CLR,,0.00,WeatherDisplay:10.37,2013-02-04 22:14:00,
2013-02-04 17:19:00,25.0,-1.5,29.78,West,276,5.8,5.8,31,0.00,CLR,,0.00,WeatherDisplay:10.37,2013-02-04 22:19:00,
2013-02-04 17:24:00,24.4,-1.3,29.78,West,261,3.5,3.5,32,0.00,CLR,,0.00,WeatherDisplay:10.37,2013-02-04 22:24:00,
2013-02-04 17:29:00,24.4,-1.3,29.78,SW,230,5.8,5.8,32,0.00,CLR,,0.00,WeatherDisplay:10.37,2013-02-04 22:29:00,
2013-02-04 17:34:00,24.6,-1.1,29.78,WNW,285,5.8,5.8,32,0.00,CLR,,0.00,WeatherDisplay:10.37,2013-02-04 22:34:00,
2013-02-04 17:39:00,24.4,-1.3,29.78,West,275,4.6,4.6,32,0.00,CLR,,0.00,WeatherDisplay:10.37,2013-02-04 22:39:00,
2013-02-04 17:44:00,24.3,-1.4,29.78,NNW,338,3.5,3.6,32,0.00,CLR,,0.00,WeatherDisplay:10.37,2013-02-04 22:44:00,
2013-02-04 17:49:00,24.4,-1.3,29.78,WNW,287,4.6,4.6,32,0.00,CLR,,0.00,WeatherDisplay:10.37,2013-02-04 22:49:00,
2013-02-04 17:54:00,23.9,-0.4,29.81,West,272,8.1,8.1,34,0.00,CLR,,0.00,WeatherDisplay:10.37,2013-02-04 22:54:00,
2013-02-04 17:59:00,24.1,-1.6,29.81,North,357,6.9,6.9,32,0.00,CLR,,0.00,WeatherDisplay:10.37,2013-02-04 22:59:00,
2013-02-04 18:04:00,24.1,-1.6,29.81,WNW,283,8.1,8.1,32,0.00,CLR,,0.00,WeatherDisplay:10.37,2013-02-04 23:04:00,
2013-02-04 18:09:00,24.1,-1.6,29.81,WSW,242,4.6,4.6,32,0.00,CLR,,0.00,WeatherDisplay:10.37,2013-02-04 23:09:00,
2013-02-04 18:14:00,24.3,-1.4,29.81,West,260,8.1,8.7,32,0.00,CLR,,0.00,WeatherDisplay:10.37,2013-02-04 23:14:00,
2013-02-04 18:19:00,23.9,-1.7,29.81,WSW,248,3.5,3.6,32,0.00,CLR,,0.00,WeatherDisplay:10.37,2013-02-04 23:19:00,
2013-02-04 18:24:00,23.9,-1.7,29.81,WNW,290,3.5,3.5,32,0.00,CLR,,0.00,WeatherDisplay:10.37,2013-02-04 23:24:00,
2013-02-04 18:29:00,23.9,-1.7,29.81,NW,325,8.1,8.1,32,0.00,CLR,,0.00,WeatherDisplay:10.37,2013-02-04 23:29:00,
2013-02-04 18:34:00,23.5,-2.1,29.81,West,271,5.8,5.8,32,0.00,CLR,,0.00,WeatherDisplay:10.37,2013-02-04 23:34:00,
2013-02-04 18:39:00,23.9,-1.7,29.81,NW,304,5.8,5.8,32,0.00,CLR,,0.00,WeatherDisplay:10.37,2013-02-04 23:39:00,
2013-02-04 18:44:00,23.5,-2.1,29.81,North,8,3.5,4.0,32,0.00,CLR,,0.00,WeatherDisplay:10.37,2013-02-04 23:44:00,
2013-02-04 18:49:00,23.5,-2.1,29.81,WNW,282,6.9,6.9,32,0.00,CLR,,0.00,WeatherDisplay:10.37,2013-02-04 23:49:00,
2013-02-04 18:54:00,23.5,-2.1,29.84,West,280,3.5,3.6,32,0.00,CLR,,0.00,WeatherDisplay:10.37,2013-02-04 23:54:00,
2013-02-04 18:59:00,23.5,-2.1,29.84,WNW,295,5.8,5.8,32,0.00,CLR,,0.00,WeatherDisplay:10.37,2013-02-04 23:59:00,
2013-02-04 19:04:00,23.0,-2.5,29.84,NNW,329,5.8,5.8,32,0.00,CLR,,0.00,WeatherDisplay:10.37,2013-02-05 00:04:00,
2013-02-04 19:09:00,22.8,-2.7,29.84,West,271,9.2,9.2,32,0.00,CLR,,0.00,WeatherDisplay:10.37,2013-02-05 00:09:00,
2013-02-04 19:14:00,22.8,-2.7,29.84,SW,224,3.5,3.5,32,0.00,CLR,,0.00,WeatherDisplay:10.37,2013-02-05 00:14:00,
2013-02-04 19:19:00,22.6,-2.8,29.84,NW,311,8.3,0.0,32,0.00,CLR,,0.00,WeatherDisplay:10.37,2013-02-05 00:19:00,
2013-02-04 19:24:00,22.6,-2.8,29.84,West,264,4.6,0.0,32,0.00,CLR,,0.00,WeatherDisplay:10.37,2013-02-05 00:24:00,
2013-02-04 19:29:00,22.8,-2.7,29.84,WNW,288,3.5,5.4,32,0.00,CLR,,0.00,WeatherDisplay:10.37,2013-02-05 00:29:00,
2013-02-04 19:34:00,22.5,-3.0,29.84,WNW,295,3.5,3.5,32,0.00,CLR,,0.00,WeatherDisplay:10.37,2013-02-05 00:34:00,
2013-02-04 19:39:00,22.5,-3.0,29.84,West,273,3.5,3.5,32,0.00,CLR,,0.00,WeatherDisplay:10.37,2013-02-05 00:39:00,
2013-02-04 19:44:00,22.3,-3.2,29.84,WSW,248,5.8,5.8,32,0.00,CLR,,0.00,WeatherDisplay:10.37,2013-02-05 00:44:00,
2013-02-04 19:49:00,22.1,-3.3,29.84,WSW,254,3.5,3.5,32,0.00,CLR,,0.00,WeatherDisplay:10.37,2013-02-05 00:49:00,
2013-02-04 19:54:00,22.3,-3.2,29.84,WNW,298,3.5,4.0,32,0.00,CLR,,0.00,WeatherDisplay:10.37,2013-02-05 00:54:00,
2013-02-04 19:59:00,21.9,-3.5,29.84,WSW,247,5.8,5.8,32,0.00,CLR,,0.00,WeatherDisplay:10.37,2013-02-05 00:59:00,
2013-02-04 20:04:00,21.9,-3.5,29.84,NW,309,5.8,5.8,32,0.00,CLR,,0.00,WeatherDisplay:10.37,2013-02-05 01:04:00,
2013-02-04 20:09:00,21.7,-3.6,29.84,NNW,328,3.5,3.6,32,0.00,CLR,,0.00,WeatherDisplay:10.37,2013-02-05 01:09:00,
2013-02-04 20:14:00,21.6,-3.8,29.84,SW,226,5.8,5.8,32,0.00,CLR,,0.00,WeatherDisplay:10.37,2013-02-05 01:14:00,
2013-02-04 20:19:00,21.7,-3.6,29.84,West,277,3.5,3.6,32,0.00,CLR,,0.00,WeatherDisplay:10.37,2013-02-05 01:19:00,
2013-02-04 20:24:00,21.6,-3.8,29.87,West,268,6.9,6.9,32,0.00,CLR,,0.00,WeatherDisplay:10.37,2013-02-05 01:24:00,
2013-02-04 20:29:00,21.9,-3.5,29.87,NNW,334,3.5,3.6,32,0.00,CLR,,0.00,WeatherDisplay:10.37,2013-02-05 01:29:00,
2013-02-04 20:34:00,21.9,-3.5,29.87,NW,311,3.5,3.6,32,0.00,CLR,,0.00,WeatherDisplay:10.37,2013-02-05 01:34:00,
2013-02-04 20:39:00,21.6,-3.8,29.87,West,272,2.3,0.0,32,0.00,CLR,,0.00,WeatherDisplay:10.37,2013-02-05 01:39:00,
2013-02-04 20:44:00,21.2,-4.1,29.87,WNW,292,3.5,3.5,32,0.00,CLR,,0.00,WeatherDisplay:10.37,2013-02-05 01:44:00,
2013-02-04 20:49:00,20.8,-4.4,29.87,WSW,251,3.5,0.0,32,0.00,CLR,,0.00,WeatherDisplay:10.37,2013-02-05 01:49:00,
2013-02-04 20:54:00,21.0,-4.3,29.87,WSW,254,2.3,0.0,32,0.00,CLR,,0.00,WeatherDisplay:10.37,2013-02-05 01:54:00,
2013-02-04 20:59:00,21.0,-4.3,29.87,West,279,3.5,3.5,32,0.00,CLR,,0.00,WeatherDisplay:10.37,2013-02-05 01:59:00,
2013-02-04 21:04:00,20.7,-4.6,29.87,WSW,256,3.5,3.5,32,0.00,CLR,,0.00,WeatherDisplay:10.37,2013-02-05 02:04:00,
2013-02-04 21:09:00,20.7,-4.6,29.87,WSW,256,0.0,0.0,32,0.00,CLR,,0.00,WeatherDisplay:10.37,2013-02-05 02:09:00,
2013-02-04 21:14:00,20.5,-4.8,29.87,WSW,254,2.3,0.0,32,0.00,CLR,,0.00,WeatherDisplay:10.37,2013-02-05 02:14:00,
2013-02-04 21:19:00,20.1,-5.1,29.87,WNW,288,2.3,0.0,32,0.00,CLR,,0.00,WeatherDisplay:10.37,2013-02-05 02:19:00,
2013-02-04 21:24:00,20.3,-4.9,29.87,West,267,5.8,5.8,32,0.00,CLR,,0.00,WeatherDisplay:10.37,2013-02-05 02:24:00,
2013-02-04 21:29:00,20.7,-4.6,29.87,West,268,4.6,4.6,32,0.00,CLR,,0.00,WeatherDisplay:10.37,2013-02-05 02:29:00,
2013-02-04 21:34:00,21.0,-4.3,29.87,West,278,3.5,3.6,32,0.00,CLR,,0.00,WeatherDisplay:10.37,2013-02-05 02:34:00,
2013-02-04 21:39:00,21.0,-4.3,29.87,WSW,254,5.8,5.8,32,0.00,CLR,,0.00,WeatherDisplay:10.37,2013-02-05 02:39:00,
2013-02-04 21:44:00,20.8,-4.4,29.87,NW,310,11.5,11.5,32,0.00,CLR,,0.00,WeatherDisplay:10.37,2013-02-05 02:44:00,
2013-02-04 21:49:00,20.7,-4.6,29.87,NW,308,3.5,3.5,32,0.00,CLR,,0.00,WeatherDisplay:10.37,2013-02-05 02:49:00,
2013-02-04 21:54:00,20.5,-4.8,29.90,NW,305,3.5,3.5,32,0.00,CLR,,0.00,WeatherDisplay:10.37,2013-02-05 02:54:00,
2013-02-04 21:59:00,20.5,-4.8,29.90,WNW,282,5.8,5.8,32,0.00,CLR,,0.00,WeatherDisplay:10.37,2013-02-05 02:59:00,
2013-02-04 22:04:00,20.3,-4.9,29.90,SW,233,3.5,3.5,32,0.00,CLR,,0.00,WeatherDisplay:10.37,2013-02-05 03:04:00,
2013-02-04 22:09:00,20.3,-4.9,29.90,WNW,297,4.6,4.6,32,0.00,CLR,,0.00,WeatherDisplay:10.37,2013-02-05 03:09:00,
2013-02-04 22:15:00,20.3,-4.9,29.90,WNW,296,3.5,3.5,32,0.00,CLR,,0.00,WeatherDisplay:10.37,2013-02-05 03:15:00,
2013-02-04 22:20:00,20.3,-4.9,29.90,North,353,5.8,0.0,32,0.00,CLR,,0.00,WeatherDisplay:10.37,2013-02-05 03:20:00,
2013-02-04 22:25:00,19.8,-5.4,29.90,WSW,255,2.3,0.0,32,0.00,CLR,,0.00,WeatherDisplay:10.37,2013-02-05 03:25:00,
2013-02-04 22:30:00,19.8,-5.4,29.90,WNW,294,0.0,0.0,32,0.00,CLR,,0.00,WeatherDisplay:10.37,2013-02-05 03:30:00,
2013-02-04 22:35:00,19.9,-5.2,29.90,NW,321,2.3,0.0,32,0.00,CLR,,0.00,WeatherDisplay:10.37,2013-02-05 03:35:00,
2013-02-04 22:40:00,19.4,-5.1,29.90,WNW,288,0.0,0.0,33,0.00,CLR,,0.00,WeatherDisplay:10.37,2013-02-05 03:40:00,
2013-02-04 22:45:00,19.4,-5.1,29.90,WNW,296,5.8,0.0,33,0.00,CLR,,0.00,WeatherDisplay:10.37,2013-02-05 03:45:00,
2013-02-04 22:50:00,19.2,-5.2,29.90,West,277,0.0,0.0,33,0.00,CLR,,0.00,WeatherDisplay:10.37,2013-02-05 03:50:00,
2013-02-04 22:55:00,19.6,-5.6,29.90,WNW,287,2.7,2.7,32,0.00,CLR,,0.00,WeatherDisplay:10.37,2013-02-05 03:55:00,
2013-02-04 23:00:00,19.6,-5.6,29.90,NW,312,0.0,0.0,32,0.00,CLR,,0.00,WeatherDisplay:10.37,2013-02-05 04:00:00,
2013-02-04 23:05:00,19.0,-5.4,29.90,WNW,300,0.0,0.0,33,0.00,CLR,,0.00,WeatherDisplay:10.37,2013-02-05 04:05:00,
2013-02-04 23:10:00,18.3,-6.0,29.90,WNW,294,2.2,0.0,33,0.00,CLR,,0.00,WeatherDisplay:10.37,2013-02-05 04:10:00,
2013-02-04 23:15:00,18.1,-6.2,29.90,WNW,295,0.0,0.0,33,0.00,CLR,,0.00,WeatherDisplay:10.37,2013-02-05 04:15:00,
2013-02-04 23:20:00,17.6,-6.7,29.90,WNW,295,2.3,0.0,33,0.00,CLR,,0.00,WeatherDisplay:10.37,2013-02-05 04:20:00,
2013-02-04 23:25:00,17.4,-6.8,29.90,WNW,295,2.3,0.0,33,0.00,CLR,,0.00,WeatherDisplay:10.37,2013-02-05 04:25:00,
2013-02-04 23:30:00,17.1,-7.2,29.90,WNW,295,0.0,0.0,33,0.00,CLR,,0.00,WeatherDisplay:10.37,2013-02-05 04:30:00,
2013-02-04 23:35:00,17.1,-7.2,29.90,West,273,3.5,0.0,33,0.00,CLR,,0.00,WeatherDisplay:10.37,2013-02-05 04:35:00,
2013-02-04 23:40:00,17.1,-7.2,29.90,NW,308,3.5,0.0,33,0.00,CLR,,0.00,WeatherDisplay:10.37,2013-02-05 04:40:00,
2013-02-04 23:45:00,16.9,-7.3,29.90,West,274,2.3,0.0,33,0.00,CLR,,0.00,WeatherDisplay:10.37,2013-02-05 04:45:00,
2013-02-04 23:50:00,16.7,-7.5,29.90,West,279,0.0,0.0,33,0.00,CLR,,0.00,WeatherDisplay:10.37,2013-02-05 04:50:00,
2013-02-04 23:55:00,16.7,-7.5,29.90,NW,314,3.5,0.0,33,0.00,CLR,,0.00,WeatherDisplay:10.37,2013-02-05 04:55:00,